Home > Weather > Mysen > Past weeks

Flag for Norway Past Weather in Mysen, Norway — Yesterday and Last 2 Weeks

Now
70 °F

Passing clouds.


Feels Like: 70 °F
Forecast: 50 / 60 °F
Wind: 5 mph from Northwest

Location: Rygge

Current Time: Aug 27, 2016 at 5:19:57 PM

Latest Report: Aug 27, 2016 at 4:00 PM


Visibility: 22 mi

Pressure: 30.05 "Hg

Humidity: 43%

Dew Point: 46 °F

Location of MysenLocation

Past Weather in Mysen — Graph

°F

Mysen Temperature Yesterday

Maximum temperature yesterday: 70 °F (at 12:00 PM)
Minimum temperature yesterday: 62 °F (at 11:00 PM)
Average temperature yesterday: 65 °F

High & Low Weather Summary for the Past Weeks

 TemperatureHumidityPressure
High74 °F (Aug 17, 4:00 PM)99% (Aug 26, 2:00 AM)30.27 "Hg (Aug 26, 2:00 AM)
Low50 °F (Aug 17, 2:00 AM)38% (Aug 17, 5:00 PM)29.63 "Hg (Aug 13, 2:00 AM)
Average62 °F78%29.99 "Hg
* Reported Aug 12 4:00 PM — Aug 27 4:00 PM, Mysen, Weather by CustomWeather, © 2016

Note: Actual official high and low records may vary slightly from our data, if they occured in-between our weather recording intervals... More about our weather records

Advertising

Mysen Weather History for the Previous 24 Hours

Scroll right to see more
 ConditionsComfort  
Time TempWeatherWind HumidityBarometerVisibility
4:00 PM
Sat, Aug 27
70 °FPassing clouds.5 mph43%30.05 "Hg22 mi
3:00 PM68 °FPassing clouds.5 mph43%30.05 "Hg25 mi
2:00 PM69 °FSunny.6 mph45%30.04 "Hg19 mi
1:00 PM68 °FSunny.6 mph49%30.05 "Hg19 mi
12:00 PM66 °FSunny.7 mph53%30.03 "Hg25 mi
11:00 AM64 °FSunny.5 mph56%30.02 "Hg22 mi
10:00 AM62 °FSunny.7 mph60%30.01 "Hg19 mi
9:00 AM60 °FSunny.7 mph69%29.98 "Hg28 mi
8:00 AM58 °FSunny.5 mph73%29.96 "Hg25 mi
7:00 AM57 °FSunny.6 mph77%29.95 "Hg28 mi
5:00 AM57 °FClear.6 mph76%29.91 "Hg31 mi
4:00 AM58 °FClear.7 mph78%29.89 "Hg31 mi
2:00 AM59 °FClear.7 mph81%29.88 "Hg31 mi
12:00 AM61 °FClear.7 mph75%29.85 "Hg31 mi
11:00 PM
Fri, Aug 26
62 °FClear.7 mph75%29.83 "Hg31 mi
10:00 PM64 °FClear.6 mph73%29.82 "Hg31 mi
9:00 PM64 °FClear.6 mph75%29.79 "Hg17 mi
8:00 PM67 °FSunny.6 mph65%29.77 "Hg31 mi
7:00 PM67 °FPassing clouds.6 mph81%29.75 "Hg9 mi
6:00 PM65 °FLow clouds.8 mph89%29.74 "Hg6 mi
5:00 PM64 °FFog.10 mph93%29.73 "Hg2 mi
Weather by CustomWeather, © 2016

See weather overviewHow to use our weather pages